EW8130 Weather Reports


Display with metric or nautical units.
time (UTC)temp
F
wind
direction
speed
MPH
gust
MPH
rain 1hr
in
rain 24hr
in
rain mn
in
humidity
%
barometer
mb
20260504034505 69 135 0.0 1.0 0.00 0.00 0.00 57 995.2
20260504033007 69 101 0.0 1.0 0.00 0.00 0.00 56 995.1
20260504031505 69 359 0.0 1.0 0.00 0.00 0.00 55 995.0
20260504030005 70 359 0.0 0.0 0.00 0.00 0.00 54 994.9
20260504024508 70 108 0.0 1.0 0.00 0.00 0.00 53 994.9
20260504023004 71 104 0.0 1.0 0.00 0.00 0.00 52 995.0
20260504021503 72 97 0.0 1.0 0.00 0.00 0.00 51 994.9
20260504020005 72 102 0.0 1.0 0.00 0.00 0.00 50 994.7
20260504014502 73 102 0.0 4.0 0.00 0.00 0.00 50 994.8
20260504013003 73 91 0.0 1.0 0.00 0.00 0.00 48 994.7
20260504011501 74 119 0.0 1.0 0.00 0.00 0.00 47 994.6
20260504010101 75 89 0.0 1.0 0.00 0.00 0.00 45 994.5
20260504004559 76 125 0.0 2.0 0.00 0.00 0.00 43 994.6
20260504003101 77 181 0.0 7.0 0.00 0.00 0.00 41 994.6
20260504001611 78 106 0.0 3.0 0.00 0.00 0.00 40 994.6
20260504000057 78 110 0.0 8.0 0.00 0.00 0.00 39 994.7
20260503234555 78 106 0.0 11.0 0.00 0.00 0.00 39 994.8
20260503233055 79 118 0.0 8.0 0.00 0.00 0.00 40 994.9
20260503231554 79 110 0.0 9.0 0.00 0.00 0.00 37 994.9
20260503230058 79 99 0.0 14.0 0.00 0.00 0.00 38 995.0
20260503224551 79 87 0.0 11.0 0.00 0.00 0.00 37 995.0
20260503223050 80 108 0.0 5.0 0.00 0.00 0.00 39 995.1
20260503221549 80 101 1.0 10.0 0.00 0.00 0.00 38 995.3
20260503220052 81 85 0.0 9.0 0.00 0.00 0.00 37 995.4
20260503214546 81 141 0.0 13.0 0.00 0.00 0.00 36 995.5
20260503213050 81 130 0.0 10.0 0.00 0.00 0.00 36 995.7
20260503211544 82 100 0.0 4.0 0.00 0.00 0.00 34 995.9
20260503210041 81 125 0.0 6.0 0.00 0.00 0.00 34 996.3
20260503204539 82 359 0.0 8.0 0.00 0.00 0.00 34 996.5
20260503203037 81 126 0.0 5.0 0.00 0.00 0.00 35 996.8
20260503201536 81 129 0.0 10.0 0.00 0.00 0.00 34 997.2
20260503200036 82 133 0.0 8.0 0.00 0.00 0.00 34 997.3
20260503194530 82 143 1.0 8.0 0.00 0.00 0.00 33 997.5
20260503193033 82 162 1.0 8.0 0.00 0.00 0.00 34 997.7
20260503191525 82 106 0.0 9.0 0.00 0.00 0.00 36 997.9
20260503190029 82 156 0.0 8.0 0.00 0.00 0.00 36 998.0
20260503184521 81 124 3.0 10.0 0.00 0.00 0.00 37 998.2
20260503183026 81 168 3.0 10.0 0.00 0.00 0.00 37 998.4
20260503181515 80 137 1.0 11.0 0.00 0.00 0.00 39 998.7
20260503180018 79 79 0.0 9.0 0.00 0.00 0.00 41 999.2
20260503174511 79 141 2.0 11.0 0.00 0.00 0.00 41 999.3
20260503173010 79 212 0.0 4.0 0.00 0.00 0.00 44 999.6
20260503171509 78 206 0.0 10.0 0.00 0.00 0.00 44 999.9
20260503081510 58 210 0.0 0.0 0.00 0.00 0.00 68 998.7
20260503071556 60 135 0.0 0.0 0.00 0.00 0.00 67 999.0
20260503054553 62 126 0.0 0.0 0.00 0.00 0.00 62 998.9
20260503053044 63 123 0.0 0.0 0.00 0.00 0.00 60 999.0
20260503051541 63 119 0.0 0.0 0.00 0.00 0.00 59 998.8
20260503050140 64 94 0.0 1.0 0.00 0.00 0.00 57 998.7
20260503044536 64 97 0.0 0.0 0.00 0.00 0.00 57 998.9
20260503043036 64 97 0.0 1.0 0.00 0.00 0.00 57 998.8
20260503041535 65 118 0.0 1.0 0.00 0.00 0.00 57 998.8
20260503040038 65 359 0.0 1.0 0.00 0.00 0.00 56 998.8